SCP
1 1 0 0 0 0 0 0 0 0 0 0 0 0 0 0 0 0 0 0 0 0 0 0 0 0 0 0 0 0 1 1 0 0 0 1 1 0 0 0 0 0 0 0
1 0 0 0 0 0 0 0 0 0 0 0 0 0 0 0 0 0 0 0 0 0 0 0 0 0 0 0 0 0 1 1 1 0 0 1 1 0 0 0 0 0 0 0
0 0 0 0 0 0 0 0 0 0 0 0 0 0 0 0 0 0 0 0 0 0 0 0 0 0 0 0 0 0 1 1 1 1 1 1 1 0 0 0 0 0 0 0
0 0 0 0 0 0 0 0 0 0 0 0 0 0 0 0 0 0 0 0 0 0 0 0 0 0 0 0 0 0 1 1 1 1 1 1 1 0 0 0 0 0 0 0
0 0 0 0 0 0 0 0 0 0 0 0 0 0 0 0 0 0 0 0 0 0 0 0 0 0 0 0 0 0 0 1 1 1 1 1 1 0 0 0 0 0 0 0
0 0 0 0 0 0 0 0 0 0 0 0 0 0 0 0 0 0 0 0 0 0 0 0 0 0 0 0 0 0 0 0 1 1 2 1 1 1 0 0 0 0 0 0
0 0 0 0 0 0 0 0 0 0 0 0 0 0 0 0 0 0 0 0 0 0 0 0 0 0 0 0 0 0 0 0 0 1 1 1 1 1 0 0 0 0 0 0
0 0 0 0 0 0 0 0 0 0 0 0 0 0 0 0 0 0 0 0 0 0 0 0 0 0 0 0 0 0 0 0 0 0 1 1 1 1 1 0 0 0 0 0
0 0 0 0 0 0 0 0 0 0 0 0 0 0 0 0 0 0 0 0 0 0 0 0 0 0 0 0 0 0 0 0 0 0 0 0 1 1 1 1 1 0 0 0
0 0 0 0 0 0 0 0 0 0 0 0 0 0 0 0 0 0 0 0 0 0 0 0 0 0 0 0 0 0 0 0 0 0 0 0 0 1 1 1 1 1 0 0
0 0 0 0 0 0 0 0 0 0 0 0 0 0 0 0 0 0 0 0 0 0 0 0 0 0 0 0 0 0 0 0 0 0 0 0 0 0 0 0 1 0 1 1
0 0 0 0 0 0 0 0 0 0 0 0 0 0 0 0 0 0 0 0 0 0 0 0 0 0 0 0 0 0 0 0 0 0 0 0 0 0 0 0 0 0 0 0
1 1 0 0 0 0 0 0 0 0 0 0 0 0 0 0 0 0 0 0 0 0 0 0 0 0 0 0 0 0 0 0 0 0 0 0 0 0 0 0 0 0 0 0
1 1 0 0 0 0 0 0 0 0 0 0 0 0 0 0 0 0 0 0 0 0 0 0 0 0 0 0 0 0 0 0 0 0 0 0 0 0 0 0 0 0 0 0
1 1 0 0 0 0 0 0 0 0 0 0 0 0 0 0 0 0 0 0 0 0 0 0 0 0 0 0 0 0 0 0 0 0 0 0 0 0 0 0 0 0 0 0
1 0 0 0 0 0 0 0 0 0 0 0 0 0 0 0 0 0 0 0 0 0 0 0 0 0 0 0 0 0 0 0 0 0 0 0 0 0 0 0 0 0 0 0
0 0 0 0 0 0 0 0 0 0 0 0 0 0 0 0 0 0 0 0 0 0 0 0 0 0 0 0 0 0 0 0 0 0 0 0 0 0 0 0 0 0 0 0
0 0 0 0 0 0 0 0 0 0 0 0 0 0 0 0 0 0 0 0 0 0 0 0 0 0 0 0 0 0 0 0 0 0 0 0 0 0 0 0 0 0 0 0
0 0 0 0 0 0 0 0 0 0 0 0 0 0 0 0 0 0 0 0 0 0 0 0 0 0 0 0 0 0 0 0 0 0 0 0 0 0 0 0 0 0 0 0
0 0 0 0 0 0 0 0 0 0 0 0 0 0 0 0 0 0 0 0 0 0 0 0 0 0 0 0 0 0 0 0 0 0 0 0 0 0 0 0 0 0 0 0
0 0 0 0 0 0 0 0 0 0 0 0 0 0 0 0 0 0 0 0 0 0 0 0 0 0 0 0 0 0 0 0 0 0 0 0 0 0 0 0 0 0 0 0
0 0 0 0 0 0 0 0 0 0 0 0 0 0 0 0 0 0 0 0 0 0 0 0 0 0 0 0 0 0 0 0 0 0 0 0 0 0 0 0 0 0 0 0
0 0 0 0 0 0 0 0 0 0 0 0 0 0 0 0 0 0 0 0 0 0 0 0 0 0 0 0 0 0 0 0 0 0 0 0 0 0 0 0 0 0 0 0
0 0 0 0 0 0 0 0 0 0 0 0 0 0 0 0 0 0 0 0 0 0 0 0 0 0 0 0 0 0 0 0 0 0 0 0 0 0 0 0 0 0 0 0
0 0 0 0 0 0 0 0 0 0 0 0 0 0 0 0 0 0 0 0 0 0 0 0 0 0 0 0 0 0 0 0 0 0 0 0 0 0 0 0 0 0 0 0
0 0 0 0 0 0 0 0 0 0 0 0 0 0 0 0 0 0 0 0 0 0 0 0 0 0 0 0 0 0 0 0 0 0 0 0 0 0 0 0 0 0 0 0
Wind_Speed
9 9 13 15 16 11 8 9 10 9 6 7 12 15 13 10 10 10 9 9 9 9 9 8 9 9 9 10 11 12 13 13 11 9 10 10 9 8 7 7 8 9 9 10
9 17 15 10 12 13 12 13 12 8 4 4 8 14 12 12 13 12 12 11 10 9 9 8 9 9 11 11 11 12 13 13 13 11 10 8 8 7 8 7 9 10 10 11
20 9 13 13 13 15 16 15 13 9 5 5 7 13 15 14 15 14 13 12 11 10 10 9 9 9 10 12 13 12 13 13 14 13 8 6 6 6 8 10 10 12 12 12
17 13 11 14 16 15 14 10 10 9 7 6 7 10 9 10 12 14 13 13 12 11 11 9 8 9 10 11 11 12 12 13 12 13 12 12 12 13 13 10 9 11 13 13
12 13 15 17 16 14 7 4 7 9 9 9 8 11 8 7 11 10 10 11 12 11 11 10 8 8 8 8 9 10 11 12 12 13 15 15 14 12 8 9 10 11 12 14
11 8 12 13 10 10 5 3 4 5 6 13 14 12 11 9 11 9 8 8 8 8 8 8 7 6 6 6 7 8 10 11 11 13 14 16 16 14 11 11 11 11 10 11
12 12 9 7 9 10 9 7 6 8 9 11 9 12 12 8 9 10 8 6 6 5 5 5 5 5 5 5 5 6 9 10 10 12 13 15 16 15 15 13 12 10 9 10
14 12 16 11 13 12 16 14 10 8 7 4 8 13 9 7 7 7 6 5 5 4 3 4 4 5 4 4 4 5 7 8 9 10 12 12 13 12 11 13 11 11 10 10
13 11 10 13 10 11 12 15 10 5 3 4 7 8 7 5 5 6 6 6 5 5 4 4 3 3 3 3 4 5 5 6 7 8 9 10 11 12 12 11 11 9 9 8
5 7 9 12 9 11 9 8 6 9 9 10 9 11 8 7 9 8 8 6 6 5 4 3 3 3 3 3 3 4 5 6 6 6 7 7 8 10 10 9 10 10 10 9
8 6 6 11 16 17 13 13 9 7 6 7 7 7 6 8 9 8 7 5 4 3 2 2 2 1 1 1 2 3 4 5 5 5 6 6 7 7 8 9 10 9 8 9
10 4 6 9 8 9 13 16 15 11 8 7 6 8 1 1 3 4 3 2 1 1 1 1 1 2 1 1 2 3 3 4 5 5 5 6 6 6 7 8 9 8 9 8
12 7 6 5 6 8 11 13 16 12 6 7 8 9 3 1 1 2 2 1 0 1 1 1 1 2 2 2 2 3 3 4 4 4 4 5 5 6 7 8 7 7 7 7
12 8 10 12 7 8 12 14 14 14 11 11 13 14 9 5 4 3 1 0 1 1 1 1 1 2 2 3 3 3 4 3 3 3 4 5 6 6 6 6 6 6 7 7
8 9 9 10 7 6 8 13 16 18 16 13 13 16 14 9 6 4 2 2 3 3 3 2 2 3 3 3 3 3 4 3 3 4 5 6 5 5 5 5 6 6 6 7
7 6 7 9 10 9 9 11 14 17 16 16 15 18 13 8 6 5 4 4 4 3 3 3 3 4 4 5 5 5 5 4 3 4 5 5 4 4 5 5 5 5 6 6
6 6 6 7 7 6 13 14 15 14 14 14 18 18 11 8 8 7 4 4 3 3 3 3 4 4 4 5 5 5 5 4 4 4 5 4 5 5 5 5 5 6 6 5
7 7 5 4 5 14 11 10 13 15 16 15 14 13 12 10 7 4 2 2 2 3 3 4 4 5 5 5 5 5 5 4 4 5 5 4 5 6 5 5 5 6 5 5
9 8 6 5 8 8 6 7 10 13 15 13 14 13 10 6 4 4 1 1 2 3 3 3 4 5 6 5 5 5 5 5 5 5 5 5 5 6 6 6 6 5 5 6
7 7 7 7 7 10 9 7 6 6 11 7 8 8 7 4 6 4 1 2 2 3 3 3 4 4 5 5 5 5 6 5 6 6 7 6 6 6 7 7 6 4 4 5
8 8 12 10 8 8 7 4 5 9 9 4 3 3 3 4 4 2 3 3 4 4 5 5 5 5 5 5 5 6 6 7 7 7 7 7 6 6 7 6 4 4 3 4
11 8 9 8 9 11 4 5 8 5 1 1 1 0 1 2 2 3 3 4 4 5 6 6 6 7 7 5 5 7 8 7 6 6 7 7 6 5 4 5 4 3 3 4
9 9 6 8 8 3 2 3 1 2 1 1 1 1 1 2 3 4 4 4 4 5 6 6 6 8 8 5 5 8 9 7 6 6 7 7 6 5 4 5 5 4 4 4
3 2 3 4 4 3 2 1 2 2 1 2 2 2 2 2 4 4 5 4 5 5 5 5 6 8 9 7 6 7 9 7 6 7 7 6 6 5 4 4 4 4 4 5
3 3 3 4 3 2 2 1 0 1 2 2 2 2 2 3 4 5 5 6 6 6 5 5 6 8 10 9 9 8 7 7 7 8 7 6 5 5 5 4 4 5 5 6
4 4 6 7 5 4 3 1 1 1 1 2 2 3 3 3 5 6 6 6 6 7 7 7 7 8 9 9 10 8 7 6 7 7 6 5 5 4 4 4 4 4 5 4
Wind_Direction
176 195 207 206 209 228 246 245 243 242 239 230 239 248 251 248 248 246 245 246 243 239 233 218 206 197 191 190 193 193 194 195 193 196 201 205 211 209 209 211 209 208 204 201
191 218 215 209 211 222 237 248 258 268 271 265 267 264 259 252 246 243 243 241 241 244 241 231 212 198 195 196 198 199 198 195 196 201 202 204 206 211 214 212 214 213 210 206
211 210 202 213 217 220 227 231 239 251 284 275 288 273 255 251 248 245 240 237 237 238 239 236 222 210 201 200 200 203 203 200 198 198 194 195 203 208 211 214 216 215 214 211
224 222 204 207 215 216 234 227 236 246 249 250 225 270 250 246 245 240 236 231 231 232 236 237 232 222 210 207 201 201 203 203 199 194 198 198 204 212 215 213 214 212 213 215
214 202 207 214 213 209 220 201 224 238 245 255 236 259 260 234 249 246 239 228 222 224 228 233 233 228 220 209 204 203 203 205 201 198 200 204 213 218 217 212 212 212 211 214
228 204 205 216 212 210 192 181 226 236 238 245 228 240 263 222 235 243 244 237 221 220 225 229 232 232 230 219 207 203 205 209 206 203 203 207 214 215 214 214 215 214 212 211
221 224 210 190 191 195 190 180 203 211 219 238 197 223 249 219 223 230 238 236 224 218 220 226 230 235 236 229 217 210 207 213 210 209 210 212 214 215 218 218 219 215 214 212
203 213 205 197 199 194 199 198 205 214 217 231 192 223 244 218 214 219 226 232 236 231 222 224 230 233 237 232 222 215 216 219 215 215 217 216 215 217 222 221 220 219 219 215
202 218 189 197 195 196 196 210 217 245 264 267 239 248 254 212 209 211 216 225 237 242 237 238 242 237 237 233 223 218 223 229 227 225 224 221 217 218 221 220 220 223 221 213
207 213 194 189 187 212 209 181 182 209 217 232 239 237 236 213 216 218 218 218 230 239 249 253 247 238 239 233 228 223 225 232 234 235 234 232 226 222 222 220 223 222 220 212
219 218 192 182 195 198 194 202 203 203 207 213 238 243 217 209 203 204 200 198 215 229 245 252 266 262 249 258 251 252 249 247 247 243 242 241 237 230 226 225 227 227 225 217
198 212 219 215 213 209 207 209 204 210 213 216 234 252 312 95 130 137 139 131 107 84 63 30 355 352 335 299 278 269 267 262 257 251 246 245 242 235 231 231 231 228 226 222
179 189 200 212 224 215 217 216 215 219 215 218 227 251 250 261 99 117 135 115 78 112 90 5 318 305 299 295 286 274 268 267 270 265 257 254 249 242 238 238 235 229 226 225
179 194 206 211 196 187 210 217 217 218 225 228 232 249 256 255 255 254 230 263 301 283 245 262 301 300 293 281 277 277 274 270 271 268 262 258 254 249 247 246 240 234 228 225
183 208 222 240 246 217 215 218 219 223 228 232 237 244 251 249 250 258 255 258 276 294 301 299 298 299 302 300 292 284 277 275 268 264 263 261 262 261 258 253 247 240 234 232
191 202 212 237 241 241 242 232 228 229 232 239 249 255 254 253 259 260 249 246 257 275 294 308 312 310 305 303 303 301 293 289 279 265 263 268 268 265 261 257 254 247 241 237
184 179 188 229 226 238 239 226 227 231 230 230 241 250 258 259 257 256 260 261 261 274 297 309 309 302 301 304 299 294 295 299 287 275 274 276 275 267 264 265 260 252 246 241
187 185 188 204 195 229 234 213 220 232 236 233 238 247 248 247 248 242 243 249 288 311 317 319 317 312 306 305 309 310 309 305 291 282 283 287 284 278 275 268 259 257 252 242
196 185 193 199 224 248 253 222 209 219 237 231 237 244 247 244 262 260 297 326 290 291 289 297 308 308 309 313 321 323 317 312 301 292 288 284 277 276 273 264 260 260 257 252
211 196 200 204 213 225 228 212 201 212 246 239 234 240 243 228 240 242 1 342 327 324 314 310 312 313 316 326 340 325 308 304 296 293 287 283 274 268 264 260 261 260 252 253
189 204 212 215 226 242 235 207 159 199 231 240 225 240 248 238 251 299 338 345 349 340 337 336 328 318 317 331 335 309 299 291 291 295 292 288 278 269 267 268 262 255 249 248
184 193 206 205 218 237 227 172 189 208 188 122 119 250 283 288 322 326 327 331 338 337 338 341 332 319 320 331 321 301 290 290 298 297 293 289 284 277 271 264 263 250 235 239
200 199 194 201 216 223 163 164 128 68 108 53 11 347 320 301 301 307 309 312 318 325 325 326 317 309 310 316 306 295 297 304 301 296 290 288 286 279 269 258 254 247 232 233
233 239 206 222 230 218 193 118 61 50 61 39 20 1 345 307 309 309 307 309 312 311 309 311 310 306 306 312 304 293 300 303 295 289 290 289 284 281 270 255 245 239 231 228
210 194 208 235 244 225 224 193 330 31 47 27 3 345 327 303 296 299 302 303 305 307 309 307 302 299 301 308 306 305 305 304 295 289 287 285 276 272 272 259 247 244 241 228
215 210 212 228 225 222 227 227 30 358 317 324 324 317 322 311 299 304 298 298 302 305 308 305 301 299 301 304 303 305 306 299 290 290 289 284 280 275 269 268 273 251 246 247